Weather Roundup
Issued by NWS Chicago, IL

Home | Current Version | Previous Version | Graphics & Text | Print | Product List | Glossary On
Versions: 1 2 3 4 5 6 7 8 9 10 11 12 13 14 15 16 17 18 19 20 21 22 23 24 25 26 27 28 29 30 31 32 33 34 35 36 37 38 39 40 41 42 43 44 45 46 47 48 49 50
000
NZUS59 KLOT 060108
HRRLOT

CHICAGO AREA WEATHER ROUNDUP
NATIONAL WEATHER SERVICE CHICAGO/ROMEOVILLE IL
800 PM CDT THU MAY 05 2016

NOTE: "FAIR" INDICATES FEW OR NO CLOUDS BELOW 12,000 FEET WITH NO
SIGNIFICANT WEATHER AND/OR OBSTRUCTIONS TO VISIBILITY.

* THESE STATIONS ARE NOT UNDER NWS QUALITY CONTROL. THEY ALSO MAY NOT
  REPORT WEATHER SUCH AS PRECIPITATION OR FOG.

ILZ005-006-012>014-019>023-060200-
NORTHEAST ILLINOIS

CITY           SKY/WX    TMP DP  RH WIND       PRES   REMARKS
OHARE          PTCLDY    54  37  52 NE6       29.97R
MIDWAY         MOCLDY    54  36  50 E7        29.98R
AURORA         CLEAR     58  43  57 NW6       29.97S
LANSING*       CLEAR     51  39  64 N3        29.98S
JOLIET*        PTCLDY    57  46  65 SE5       29.97R
WAUKEGAN       CLEAR     49  37  63 CALM      29.97S
DUPAGE AIRPORT CLEAR     59  36  42 NW3       29.96S
WHEELING       CLEAR     52  36  54 E5        29.99R
KANKAKEE*      CLEAR     55  43  62 NE5       29.97S
MORRIS*        CLEAR     61  42  49 NW5       29.96S
LEWIS AIRPORT* CLEAR     56  41  58 E6        29.97S
$$

WIZ051-052-058>065-066-070>072-060200-
SOUTHEAST WISCONSIN

CITY           SKY/WX    TMP DP  RH WIND       PRES   REMARKS
MILWAUKEE      MOCLDY    50  36  58 CALM      29.97F
KENOSHA*       CLEAR     46  37  71 E5        29.97S
RACINE*        CLEAR     49  35  58 CALM      29.99R
BURLINGTON     CLEAR     53  40  62 E3        29.97R
WAUKESHA       CLEAR     52  39  62 E6        29.97S
WEST BEND      CLEAR     52  37  58 SE3       29.96S
$$

INZ001>003-010>013-019-020-060200-
NORTHWEST INDIANA

CITY           SKY/WX    TMP DP  RH WIND       PRES   REMARKS
GARY*          PTCLDY    48  46  93 NE5       29.98S
MICHIGAN CITY* NOT AVBL
RENSSELAER*    NOT AVBL
VALPARAISO     CLEAR     48  40  73 N3        29.97S
$$

LMZ740>746-060200-
SOUTHERN LAKE MICHIGAN

STATION/POSITION TIME  SKY/WX   TEMP WIND        PRES    VSBY
                                AIR  DIR/SP/G
                 (UTC)          (F)  (DEG/KT/KT) (MB)    (MI)
HARRISON CRIB    0000            49     CALM       N/A
BURNHAM HARBOR   0100            45   CALM  /  3   N/A
CALUMET HARBOR   0000                 50/  3/  4 1014.7F
BURNS HARBOR     0040            48   70/  6/  8 1015.6F
MICHIGAN CITY    0000            45   20/  3/  4   N/A
$$

ABBREVIATIONS USED IN REMARKS
   TC - TEMPERATURE IN CELSIUS
  WCI - WIND CHILL INDEX
   HX - HEAT INDEX
  VSB - VISIBILITY
$$



USA.gov is the U.S. government's official web portal to all federal, state and local government web resources and services.